Find Starlink 5864

NORAD ID: 55940 Int'l Des: 2023-037 Owner: SPXS Country: US Constellation: starlink operational
LEOCIRCULAR

当前视图

正在加载3D地球...

关于 Starlink 5864

正在加载描述...

即将过境

Passes for default location (London). Set your location on the main map for personalized predictions.

高度历史

Loading altitude history...

两行轨道根数

1 55940U 23037AC 26151.09356562 -.00001423 00000-0 -11150-3 0 9992
2 55940 70.0006 76.6852 0002622 259.5229 100.5635 14.98319112176326
Epoch: May 31, 2026 • Age: 11 hours

当前状态

高度 574.9 km
速度 7.57 km/s
星下点 -0.63°S, 15.66°W
发射日期 Mar 17, 2023
运行时间 3.2 years
类型 internet

技术详情

分类 Payload
质量 305.00 kg
干质量 290.00 kg
总质量 305.00 kg
长度 0.20 m
直径 2.80 m
跨度 9.00 m
形状 Box + pan
制造商 SPXS
平台类型 Starlink
阶段状态 In Orbit
所有者/国家 SPXS/US

Most Searched